FALCON 9 R/B, 44869

Orbit data source: Space-Track

FALCON 9 R/B, 44869 is space debris in HEO originally from a launch on Tue, 17 Dec 2019 UTC launched from the Air Force Eastern Test Range (AFETR). Debris objects in space refer to the collection of defunct objects orbiting the Earth. Examples of debris include non-operational satellites, rocket bodies, and fragments generated from explosions, collisions, or faulty payload assembly.

Loading next visibility...
FALCON 9 R/B details
Identifier
44869, 2019-091B
Orbit
HEO
Last TLE update8 hours ago
Origin
Flag of USSpaceX (US)
ManufacturerSpaceX
MissionSpacecraft
Bus & MotorF9ST2, Unknown motor
Mass~4,000 kg wet, ~4,000 kg dry
Launch date (UTC)
2019-12-17 (5 years ago)
Launch vehicleUnknown
Launch site
Air Force Eastern Test Range (AFETR)
Object type
Payload
Rocket body
Debris
Shape & HBRCyl, 15.53 m
Radar Cross Section39.980 m², Large (>1 m²)

Expand to show TLE details & history

TLE from 8 hours ago
0 FALCON 9 R/B
1 44869U 19091B   24361.50458779  .00007670  00000-0  21333-2 0  9996
2 44869  26.9375 285.6413 5842062  50.3473 348.1325  4.25763067 75999
Epoch: 2024-12-26T12:06Z
Definitive object data (Epoch: 2024-12-26T12:06:36.385Z)
Latitude0.00014°
Longitude8.52144°
Altitude1,338.846 km
Speed8.861 km/s
True Right ascension19h 02m 37s
True Declination0° 00' 00"
Sunlit
Object was in daylight at TLE epoch
Visualization TLE readout
Latitude-15.10996°
Longitude-139.71666°
Altitude17,821.758 km
Speed2.856 km/s
Apparent Right ascension08h 51m 39s
Apparent Declination-20° 25' 48"
Sunlit
Object is in daylight
Visualization observer readout
Local Sidereal Time19:23:41
Azimuth309.555° NW
Elevation-62.928°
Doppler factor1
Orbital elements
Apogee altitude19,101.756 km
Perigee altitude309.365 km
Semi-major axis16,083.697 km
Eccentricity0.5842062
Inclination26.9375°
RAAN285.6413°
Arg. of periapsis50.3473°
True anomaly309.5579°
Mean anomaly348.1325°
Eccentric anomaly332.86719°
Mean motion1.06406 °/min
BSTAR0.0021333
Orbital period338.33 mins
Loading maneuver chart data...
Loading historical data...
Loading historical data...
Loading historical data...
Loading historical data...
Loading historical data...
Loading historical data...
Loading historical data...
Other satellites on launch #91 in the year 2019 (2019-12-17 UTC)

FALCON 9 R/B Visibility forecast

Observer location: undefined°, undefined

Span
Click to sort rows by Start time (UTC) header in descending order
Start Az.
Max El. time (UTC)
Max El. Az.
Max El.
End time (UTC)
End Az.
108 mins2024-12-27 05:26:56.406Z249.576° W2024-12-27 05:39:56.406Z186.065° SSW31.527°2024-12-27 07:14:56.406Z140.116° SSE
|